Regional Weather Roundup
Issued by NWS Goodland, KS

Home | Current Version | Previous Version | Graphics & Text | Print | Product List | Glossary On
Versions: 1 2 3 4 5 6 7 8 9 10 11 12 13 14 15 16 17 18 19 20 21 22 23 24 25 26 27 28 29 30 31 32 33 34 35 36 37 38 39 40 41 42 43 44 45 46 47 48 49 50
000
ASUS43 KGLD 250259
RWRGLD

GOODLAND FORECAST AREA HOURLY WEATHER ROUNDUP
NATIONAL WEATHER SERVICE GOODLAND KS
900 PM MDT SUN SEP 24 2017

...OFFICIAL OBSERVATIONS...

CITY           SKY/WX    TMP DP  RH WIND       PRES   REMARKS
GOODLAND KS    CLOUDY    53  53 100 NE15      29.94F FOG
HILL CITY KS   RAIN      59  59 100 N16G24    29.93F FOG
IMPERIAL NEB   LGT RAIN  51  49  92 NE15      30.00R
MCCOOK NEB     CLOUDY    55  55 100 NE12      29.97F
AKRON CO       CLOUDY    47  46  97 NE8       30.01R FOG
BURLINGTON CO  NOT AVBL
LIMON CO         N/A    N/A N/A N/A MISG        N/A
$$

...UNOFFICIAL OBSERVATIONS...

CITY           SKY/WX    TMP DP  RH WIND       PRES   REMARKS
LENORA KS        N/A     57  32  39 MISG        N/A
NORTON KS      HVY RAIN  55  52  88 N16       29.95S
SHARON SPRINGS   N/A     55  54  97 N10         N/A
KIT CARSON CO    N/A     52  49  90 MISG        N/A
YUMA CO        CLOUDY    46  46 100 NE8       29.99S FOG
$$




USA.gov is the U.S. government's official web portal to all federal, state and local government web resources and services.